星链-33857 (STARLINK-33857)

导读 | 豆包AI

STARLINK-33857是美国太空探索技术公司(SpaceX)星链(Starlink)星座的一颗卫星,发射于2025年5月28日,星链计划旨在构建全球卫星互联网星座,为全球提供高速低延迟互联网接入服务。该卫星入轨后将和其他星链卫星组网,扩展星座覆盖范围,服务地面通信,提升全球网络服务的覆盖能力,是星链星座部署扩张的组成单元。

基本信息
目录编号:
64195
目录名称:
STARLINK-33857
国际标识:
2025-113AB
轨道中心:
EARTH
卫星名称:
星链-33857
卫星全名:
星链-33857 (STARLINK-33857)
卫星状态:
在轨 (已飞行336 天)
发射日期:
2025-05-28 UTC
国别 :
美国 (US)
星等 :
--
轨道信息
数据来源 国际轨道数据
星历时间: 2026-04-29T00:40:08+0800
1天前
查看轨道信息
半长轴: 6853.36km
偏心率: 0.0001072
轨道倾角: 53.160°
近地点辐角 83.707°
升交点赤经 218.678°
平近点角 276.405°
近地点: 474.488km
远地点: 475.958km
周期: 94.106分钟
每日圈数: 15.301974
详细信息
固有亮度:
5
最大亮度:
2.5
卫星平台:
Starlink V1.0
覆盖范围:
全球
运营商:
太空探索技术公司
运营商所在国:
美国
制造商(研发单位):
太空探索技术公司
制造商所在国:
美国
使用方式:
暂无
卫星简介
Starlink 计划是 SpaceX 推出的全球卫星互联网项目,通过发射低轨道卫星,为全球尤其是偏远地区提供高速、低延迟的互联网服务。自 2019 年起,Starlink 已部署数千颗卫星,旨在缩小全球数字鸿沟,推动互联网普及。该项目还为军事、航空等行业提供通信支持,带来广泛经济效益。
2D轨道图
3D轨道图
轨道高度分析图
轨道倾角分析图
轨道综合分析图
查看轨道综合分析图